[[{"header":{"parameterUnit":"m.s-1","parameterCategory":1,"la1":30.2991,"la2":30.254,"lo1":-89.0895,"lo2":-89.0444,"dy":0.0017,"dx":0.0017,"nx":28,"ny":28,"refTime":"2025-09-07T09:00:00:Z","depth":0,"parameterNumber":2,"parameterNumberName":"U-component_of_WINDS"},"data":[0,0,0,0,0,0,0,0,0,0,0,0,0,0,0,0,0,0,0,0,0,0,0,0,0,0,0,0,0,0,0,0,0,0,0,0,0,0,0,0,0,0,0,0,0,0,0,0,0,0,0,0,0,0,0,0,0,0,-1.4168,-1.4168,0,-1.4194,-1.4195,-1.4195,-1.4177,-1.4176,-1.4175,-1.4175,-1.42,-1.4202,-1.4203,0,0,0,0,0,0,0,0,0,0,0,0,0,-1.4101,-1.4102,-1.4168,-1.4168,-1.4169,-1.4194,-1.4195,-1.4195,-1.4177,-1.4176,-1.4175,-1.4174,-1.42,-1.4202,-1.4203,0,0,0,0,0,0,0,0,0,0,0,0,0,-1.4129,-1.4103,-1.4168,-1.4163,-1.4163,-1.4194,-1.4195,-1.4195,-1.4177,-1.4176,-1.4175,-1.4174,-1.4199,-1.4201,-1.4204,-1.4241,0,0,-1.421,-1.4211,0,0,0,0,0,0,0,0,-1.4127,-1.4131,-1.4163,-1.4163,-1.4163,-1.4181,-1.418,-1.4211,-1.4178,-1.4172,-1.4175,-1.4173,-1.4195,-1.4197,-1.4205,-1.4243,-1.4244,-1.421,-1.4212,-1.4213,-1.4213,0,0,0,0,0,0,0,-1.4126,-1.413,-1.4178,-1.4164,-1.4164,-1.4159,-1.4161,-1.4186,-1.419,-1.4172,-1.4171,-1.4174,-1.4195,-1.4203,-1.4205,-1.4244,-1.421,-1.4212,-1.4214,-1.4214,-1.4314,-1.4315,0,0,0,0,0,0,-1.4124,-1.4129,-1.4178,-1.4179,-1.4142,-1.4161,-1.4164,-1.4177,-1.4189,-1.419,-1.4175,-1.4173,-1.42,-1.4203,-1.4206,-1.4252,-1.4213,-1.4215,-1.4216,-1.4312,-1.4314,-1.4316,0,0,0,0,0,0,-1.4123,-1.4129,-1.4177,-1.4154,-1.4159,-1.4164,-1.4178,-1.4178,-1.4186,-1.4192,-1.4192,-1.4183,-1.4199,-1.4203,-1.4233,-1.4252,-1.4216,-1.4218,-1.4311,-1.4313,-1.4315,-1.4342,0,0,0,0,0,0,-1.4121,-1.4128,-1.4143,-1.4154,-1.4161,-1.4203,-1.4179,-1.4179,-1.419,-1.4188,-1.4199,-1.42,-1.4198,-1.423,-1.4235,-1.4254,-1.4219,-1.4309,-1.4312,-1.4314,-1.434,-1.4345,-1.435,0,0,0,0,0,-1.4119,-1.415,-1.4144,-1.415,-1.4179,-1.4204,-1.4208,-1.4206,-1.4192,-1.4206,-1.421,-1.42,-1.4249,-1.4233,-1.4239,-1.4259,-1.4308,-1.4311,-1.4314,-1.4337,-1.4344,-1.4349,0,0,0,0,0,0,-1.414,-1.4151,-1.4145,-1.418,-1.4192,-1.4201,-1.422,-1.4213,-1.4228,-1.4225,-1.4221,-1.4224,-1.4255,-1.426,-1.4241,-1.4296,-1.4276,-1.4281,-1.4292,-1.4298,-1.4303,-1.4302,-1.4221,0,0,0,0,0,-1.4149,-1.4169,-1.4177,-1.4208,-1.4214,-1.4216,-1.4227,-1.4224,-1.4235,-1.424,-1.4246,-1.4257,-1.4275,-1.4287,-1.4303,-1.434,-1.4342,-1.4357,-1.4362,-1.4366,-1.437,-1.439,-1.4396,-1.4325,-1.4325,-1.4325,0,0,-1.4168,-1.4176,-1.4189,-1.4212,-1.4221,-1.4241,-1.422,-1.4242,-1.4257,-1.4243,-1.4272,-1.4276,-1.4288,-1.4322,-1.4337,-1.4327,-1.439,-1.437,-1.4373,-1.4375,-1.4393,-1.44,-1.4406,-1.4327,-1.4327,-1.4327,0,0,-1.4213,-1.4221,-1.4247,-1.4256,-1.4269,-1.427,-1.4277,-1.4287,-1.429,-1.4319,-1.4308,-1.4326,-1.4357,-1.4366,-1.4375,-1.4422,-1.4414,-1.4428,-1.4454,-1.4473,-1.4479,-1.4484,-1.4501,-1.4507,-1.4431,-1.4432,-1.4432,0,-1.4234,-1.4265,-1.4262,-1.4285,-1.4296,-1.4283,-1.431,-1.4319,-1.4337,-1.4344,-1.4332,-1.4371,-1.4378,-1.4414,-1.4426,-1.4433,-1.444,-1.4427,-1.4478,-1.4483,-1.4488,-1.4504,-1.4511,-1.4433,-1.4433,-1.4433,-1.4433,0,-1.4291,-1.4312,-1.4332,-1.435,-1.4363,-1.4387,-1.4388,-1.44,-1.4396,-1.4398,-1.4428,-1.4436,-1.4454,-1.4462,-1.4458,-1.4497,-1.4491,-1.4479,-1.4459,-1.4496,-1.4512,-1.4518,-1.4436,-1.4435,-1.4435,-1.4434,0,0,-1.4351,-1.4366,-1.4374,-1.4382,-1.4395,-1.4411,-1.4435,-1.4454,-1.4465,-1.4477,-1.4498,-1.4524,-1.4513,-1.4523,-1.452,-1.4537,-1.4574,-1.4523,-1.4523,-1.4532,-1.4618,-1.4627,-1.4634,-1.4568,-1.4569,-1.457,-1.4617,0,-1.4396,-1.4439,-1.4437,-1.4477,-1.4496,-1.4485,-1.4506,-1.4516,-1.4519,-1.4535,-1.4538,-1.4557,-1.4541,-1.4547,-1.4563,-1.4566,-1.4591,-1.4563,-1.4587,-1.4588,-1.4585,-1.4642,-1.4652,-1.4696,-1.4623,-1.4624,-1.4625,0,-1.4456,-1.4471,-1.4513,-1.4523,-1.4531,-1.4551,-1.4567,-1.4583,-1.4594,-1.4595,-1.4606,-1.46,-1.4623,-1.4602,-1.4635,-1.4616,-1.4625,-1.4628,-1.463,-1.4632,-1.4609,-1.4647,-1.471,-1.4717,-1.4634,-1.4633,-1.4633,0,-1.4496,-1.4526,-1.4556,-1.4563,-1.4575,-1.4589,-1.4595,-1.4605,-1.4616,-1.463,-1.4637,-1.4654,-1.4663,-1.4676,-1.4674,-1.4659,-1.4707,-1.4686,-1.4709,-1.4709,-1.472,-1.472,-1.4786,-1.4725,-1.4725,-1.4725,-1.4725,0,-1.4548,-1.4574,-1.4574,-1.4592,-1.4621,-1.4617,-1.4646,-1.465,-1.4659,-1.4677,-1.4668,-1.4685,-1.4682,-1.4699,-1.4697,-1.4725,-1.4729,-1.473,-1.4729,-1.4731,-1.4731,-1.4738,-1.4735,-1.4727,-1.4726,-1.4726,-1.4726,0,-1.4598,-1.4599,-1.463,-1.4639,-1.4642,-1.4663,-1.4671,-1.4688,-1.469,-1.4713,-1.4718,-1.472,-1.474,-1.4739,-1.4761,-1.476,-1.4794,-1.479,-1.4791,-1.479,-1.4813,-1.4811,-1.4887,-1.4897,-1.4829,-1.483,-1.483,0,-1.4631,-1.4651,-1.4663,-1.4675,-1.4682,-1.4701,-1.4712,-1.4709,-1.4721,-1.4735,-1.4751,-1.4769,-1.4784,-1.4816,-1.482,-1.4836,-1.4833,-1.4858,-1.4835,-1.4836,-1.4834,-1.4833,-1.4835,-1.4863,-1.4863,-1.4864,-1.4864,0,-1.4691,-1.469,-1.4707,-1.4725,-1.4738,-1.4752,-1.4764,-1.4774,-1.4772,-1.4786,-1.4806,-1.4818,-1.4841,-1.4859,-1.4875,-1.4881,-1.4873,-1.4871,-1.4878,-1.488,-1.488,-1.4881,-1.4804,-1.487,-1.4869,-1.4869,-1.4869,-1.4868,-1.4734,-1.4751,-1.4762,-1.4782,-1.4791,-1.4802,-1.4819,-1.4822,-1.4839,-1.4858,-1.4854,-1.4877,-1.4887,-1.4908,-1.4915,-1.4932,-1.4923,-1.4932,-1.4934,-1.4937,-1.494,-1.4877,-1.4935,-1.4935,-1.4935,-1.4934,-1.4934,0,-1.4793,-1.48,-1.4818,-1.4835,-1.485,-1.4841,-1.4854,-1.4867,-1.4887,-1.4898,-1.4913,-1.4936,-1.4954,-1.4958,-1.4976,-1.4989,-1.4985,-1.4993,-1.4993,-1.4994,-1.4947,-1.494,-1.4996,-1.4996,-1.4996,-1.4996,-1.4996,-1.4996,-1.4826,-1.4855,-1.4856,-1.4889,-1.4895,-1.4918,-1.4926,-1.4936,-1.4945,-1.4971,-1.4986,-1.4989,-1.4997,-1.5015,-1.5031,-1.5032,-1.5039,-1.5049,-1.5048,-1.5004,-1.4998,-1.4992,-1.4985,-1.505,-1.505,-1.5094,-1.5095,-1.5095]},{"header":{"parameterUnit":"m.s-1","parameterCategory":1,"la1":30.2991,"la2":30.254,"lo1":-89.0895,"lo2":-89.0444,"dy":0.0017,"dx":0.0017,"nx":28,"ny":28,"refTime":"2025-09-07T09:00:00:Z","depth":0,"parameterNumber":3,"parameterNumberName":"V-component_of_WINDS"},"data":[0,0,0,0,0,0,0,0,0,0,0,0,0,0,0,0,0,0,0,0,0,0,0,0,0,0,0,0,0,0,0,0,0,0,0,0,0,0,0,0,0,0,0,0,0,0,0,0,0,0,0,0,0,0,0,0,0,0,-4.8265,-4.8265,0,-4.8331,-4.8332,-4.8333,-4.8314,-4.8312,-4.8311,-4.831,-4.8373,-4.8376,-4.8379,0,0,0,0,0,0,0,0,0,0,0,0,0,-4.8116,-4.8119,-4.8265,-4.8265,-4.8266,-4.8331,-4.8332,-4.8333,-4.8314,-4.8312,-4.8311,-4.8309,-4.8372,-4.8375,-4.8379,0,0,0,0,0,0,0,0,0,0,0,0,0,-4.8182,-4.812,-4.8264,-4.8265,-4.8265,-4.8331,-4.8332,-4.8333,-4.8314,-4.8312,-4.831,-4.8308,-4.8371,-4.8375,-4.8379,-4.8447,0,0,-4.8393,-4.8395,0,0,0,0,0,0,0,0,-4.8178,-4.8187,-4.8264,-4.8265,-4.8266,-4.8312,-4.8303,-4.8371,-4.8315,-4.8295,-4.831,-4.8307,-4.8354,-4.836,-4.8376,-4.845,-4.8453,-4.8393,-4.8396,-4.8398,-4.8399,0,0,0,0,0,0,0,-4.8174,-4.8184,-4.8291,-4.8265,-4.8266,-4.826,-4.8267,-4.8316,-4.8335,-4.8297,-4.8296,-4.8304,-4.8354,-4.8372,-4.8378,-4.8454,-4.8393,-4.8397,-4.84,-4.8402,-4.8589,-4.8592,0,0,0,0,0,0,-4.8169,-4.818,-4.8289,-4.8293,-4.8216,-4.8264,-4.8272,-4.8299,-4.8335,-4.8338,-4.8306,-4.8303,-4.8366,-4.8373,-4.838,-4.8464,-4.8398,-4.8402,-4.8405,-4.8587,-4.859,-4.8592,0,0,0,0,0,0,-4.8166,-4.8179,-4.8286,-4.8237,-4.825,-4.8269,-4.83,-4.8302,-4.832,-4.8341,-4.8344,-4.8321,-4.8364,-4.8374,-4.8432,-4.8466,-4.8404,-4.8408,-4.8584,-4.8588,-4.8591,-4.8631,0,0,0,0,0,0,-4.8162,-4.8178,-4.8205,-4.8237,-4.8252,-4.8338,-4.8302,-4.8304,-4.8328,-4.8325,-4.8357,-4.836,-4.8363,-4.8425,-4.8436,-4.8471,-4.8411,-4.8581,-4.8586,-4.859,-4.8627,-4.8636,-4.8643,0,0,0,0,0,-4.8156,-4.8212,-4.8206,-4.8219,-4.8287,-4.834,-4.8349,-4.8353,-4.8331,-4.8358,-4.8372,-4.8359,-4.846,-4.8431,-4.8443,-4.848,-4.8579,-4.8585,-4.859,-4.8624,-4.8634,-4.8643,0,0,0,0,0,0,-4.818,-4.8216,-4.821,-4.8278,-4.8307,-4.8337,-4.8371,-4.8364,-4.8398,-4.8393,-4.8396,-4.8403,-4.8463,-4.8477,-4.8444,-4.8549,-4.8516,-4.8524,-4.8538,-4.8548,-4.8556,-4.8552,-4.8415,0,0,0,0,0,-4.8194,-4.8236,-4.8264,-4.8321,-4.8336,-4.8351,-4.8374,-4.8376,-4.8404,-4.8416,-4.8434,-4.8461,-4.8499,-4.8524,-4.856,-4.8629,-4.8636,-4.866,-4.8668,-4.8674,-4.8681,-4.8721,-4.8732,-4.861,-4.861,-4.8609,0,0,-4.8221,-4.8246,-4.8272,-4.8326,-4.8348,-4.8391,-4.8361,-4.8406,-4.8438,-4.8422,-4.8479,-4.8493,-4.8524,-4.8588,-4.8617,-4.8601,-4.8717,-4.8681,-4.8686,-4.869,-4.8727,-4.8739,-4.8749,-4.8613,-4.8613,-4.8612,0,0,-4.8294,-4.8316,-4.8368,-4.8391,-4.8426,-4.8436,-4.8449,-4.8481,-4.8491,-4.8548,-4.8538,-4.8574,-4.8639,-4.8662,-4.8682,-4.8766,-4.8755,-4.8777,-4.882,-4.8858,-4.8867,-4.8876,-4.8907,-4.8919,-4.8784,-4.8784,-4.8784,0,-4.8323,-4.8389,-4.8394,-4.8442,-4.8467,-4.8456,-4.8508,-4.853,-4.8574,-4.8591,-4.8573,-4.8656,-4.8676,-4.8746,-4.8767,-4.8783,-4.8797,-4.8774,-4.8866,-4.8875,-4.8883,-4.8913,-4.8924,-4.8786,-4.8786,-4.8786,-4.8786,0,-4.8424,-4.847,-4.8507,-4.8553,-4.8581,-4.863,-4.8643,-4.8671,-4.867,-4.8681,-4.8741,-4.8764,-4.8806,-4.8822,-4.882,-4.8893,-4.8882,-4.8865,-4.8833,-4.8897,-4.8925,-4.8937,-4.879,-4.8789,-4.8788,-4.8788,0,0,-4.8514,-4.8564,-4.8578,-4.8599,-4.8638,-4.8672,-4.8721,-4.8764,-4.8789,-4.8819,-4.8861,-4.8917,-4.8902,-4.8925,-4.8926,-4.8959,-4.9026,-4.8938,-4.8939,-4.8955,-4.9109,-4.9124,-4.9137,-4.9019,-4.9021,-4.9023,-4.9107,0,-4.8591,-4.868,-4.8687,-4.8766,-4.8809,-4.88,-4.8843,-4.8871,-4.8883,-4.892,-4.8933,-4.8974,-4.895,-4.8964,-4.8997,-4.9011,-4.9057,-4.9005,-4.9058,-4.9059,-4.9052,-4.9151,-4.9166,-4.9245,-4.9118,-4.912,-4.9121,0,-4.8693,-4.8731,-4.8816,-4.885,-4.8868,-4.8907,-4.8948,-4.8983,-4.9015,-4.9021,-4.9048,-4.9045,-4.9094,-4.906,-4.9128,-4.9093,-4.9114,-4.9125,-4.9128,-4.9134,-4.9096,-4.9162,-4.927,-4.9282,-4.9139,-4.9137,-4.9136,0,-4.8753,-4.8824,-4.8884,-4.8903,-4.8944,-4.8972,-4.899,-4.9019,-4.9045,-4.908,-4.9098,-4.9137,-4.9159,-4.9189,-4.9196,-4.917,-4.9265,-4.923,-4.9272,-4.9272,-4.9294,-4.9293,-4.9409,-4.9305,-4.9305,-4.9305,-4.9304,0,-4.884,-4.8892,-4.8912,-4.8949,-4.9008,-4.9015,-4.9072,-4.9088,-4.9115,-4.9155,-4.9148,-4.9185,-4.9192,-4.923,-4.9235,-4.9293,-4.9302,-4.9308,-4.931,-4.931,-4.931,-4.9326,-4.9321,-4.9308,-4.9307,-4.9307,-4.9306,0,-4.8917,-4.8932,-4.8998,-4.9032,-4.9042,-4.9084,-4.9113,-4.9149,-4.9161,-4.9211,-4.9223,-4.9242,-4.9287,-4.9297,-4.9349,-4.9353,-4.9421,-4.9416,-4.9412,-4.9412,-4.9454,-4.9451,-4.9585,-4.9604,-4.9487,-4.9488,-4.9489,0,-4.8972,-4.9013,-4.9053,-4.9081,-4.9101,-4.9144,-4.9172,-4.918,-4.9209,-4.9249,-4.9279,-4.9324,-4.936,-4.9432,-4.945,-4.949,-4.9487,-4.9531,-4.9493,-4.9493,-4.949,-4.9488,-4.9493,-4.9539,-4.954,-4.9541,-4.9542,0,-4.907,-4.9076,-4.9117,-4.9161,-4.9195,-4.9229,-4.9262,-4.9284,-4.9297,-4.9329,-4.9377,-4.9405,-4.946,-4.9505,-4.9546,-4.9563,-4.9555,-4.9554,-4.9566,-4.9568,-4.9565,-4.9569,-4.9434,-4.9551,-4.955,-4.9549,-4.9549,-4.9549,-4.9139,-4.9175,-4.9211,-4.9257,-4.9283,-4.9314,-4.9351,-4.9368,-4.9408,-4.9456,-4.9457,-4.9509,-4.954,-4.9595,-4.9615,-4.9654,-4.9641,-4.9658,-4.9662,-4.9667,-4.9672,-4.9557,-4.9661,-4.9661,-4.9661,-4.9661,-4.9661,0,-4.9238,-4.926,-4.9303,-4.9351,-4.9387,-4.9379,-4.9415,-4.9446,-4.9492,-4.9523,-4.956,-4.9614,-4.9658,-4.9679,-4.9722,-4.975,-4.9748,-4.9761,-4.976,-4.9765,-4.9681,-4.9667,-4.9763,-4.9763,-4.9763,-4.9763,-4.9763,-4.9763,-4.9294,-4.9356,-4.9367,-4.9442,-4.9464,-4.9517,-4.9539,-4.9567,-4.9592,-4.9655,-4.9692,-4.9706,-4.9733,-4.9779,-4.9818,-4.9823,-4.984,-4.9856,-4.9859,-4.9781,-4.977,-4.976,-4.9748,-4.9859,-4.9859,-4.994,-4.9941,-4.9941]}]]